Location: Litvinovka
(48.6667°N, 34.3500°E)
Time: 06:43:16
(UTC+00:00)

Cosmos 468 - Pass Details

Date: 18 September 2020
Orbit: 761 x 784 km, 74.0° (Epoch: 21 October)

Event Time Altitude Azimuth Distance (km) Brightness Sun altitude
Rises 17:29:09 0° 337° (NNW) 3,278 8.5 -17.0°
Reaches altitude 10° 17:31:33 10° 338° (NNW) 2,348 7.6 -17.4°
Maximum altitude 17:36:54 83° 66° (ENE) 797 4.5 -18.2°
Enters shadow 17:39:58 26° 153° (SSE) 1,494 5.6 -18.6°
